OBJECT G, 44316

Orbit data source: Space-Track

You're viewing an Uncataloged Satellite

Recently launched and/or uncataloged satellites may have evolving metadata. Metadata may include but not limited to: Owner, Maufacturer, Bus, Motor, and Mission.

OBJECT G, 44316 is a satellite owned by CETG (CN) in LEO that was launched on Wed, 05 Jun 2019 UTC via a CHANG ZHENG 11 launch vehicle from the Yellow Sea Launch Area, China (YSLA). Unknown objects in Earth's orbit typically refer to objects detected orbiting the Earth but have not yet been identified or cataloged. These objects could be anything from previously untracked satellites, spent rocket stages, debris from satellite collisions, or even natural meteoroids temporarily captured by Earth's gravity.

Loading next visibility...
Identifier
44316, 2019-032G
Orbit
LEO
Last TLE update
8 hours ago
Origin
Flag of CNDKJ (CN / PRC)
Manufacturer
DKJ?
Mission
Commercial Technology
Bus & Motor
TIANDI, Unknown motor
Mass
65 kg wet, 65 kg dry
Launch date (UTC)
2019-06-05 (6 years ago)
Launch vehicle
CHANG ZHENG 11
Launch site
Yellow Sea Launch Area, China (YSLA)
Object type
Unknown
Shape & HBR
Box, 1 m
Radar Cross Section
1.500 m², Medium (>0.1 m² and < 1m²)

Expand to show TLE details & history

TLE from 8 hours ago
0 OBJECT G
1 44316U 19032G   25128.92505262  .00008193  00000-0  42034-3 0  9999
2 44316  44.9762  89.5991 0014130 104.7296 255.5150 15.16935116325495
Epoch: 2025-05-08T22:12Z
Definitive object data (Epoch: 2025-05-08T22:12:04.546Z)
Latitude
0.00002°
Longitude
-110.40838°
Altitude
517.555 km
Speed
7.605 km/s
True Right ascension
05h 58m 23s
True Declination
0° 00' 00"
Sunlit
Object was in daylight at TLE epoch
Visualization TLE readout
Latitude
42.38646°
Longitude
-46.96126°
Altitude
510.291 km
Speed
7.619 km/s
Apparent Right ascension
06h 30m 05s
Apparent Declination
5° 48' 58"
Sunlit
Object is in daylight
Visualization observer readout
Local Sidereal Time
14:33:58
Azimuth
295.466° NW
Elevation
-19.126°
Doppler factor
1
Orbital elements
Apogee altitude
526.458 km
Perigee altitude
506.973 km
Semi-major axis
6,894.853 km
Eccentricity
0.001413
Inclination
44.9762°
RAAN
89.5991°
Arg. of periapsis
104.7296°
True anomaly
255.3583°
Mean anomaly
255.515°
Eccentric anomaly
255.43664°
Mean motion
3.79102 °/min
BSTAR
0.00042034
Orbital period
94.96 mins
Loading maneuver chart data...
Loading SW <> Apogee altitude chart data...
Loading historical data...
Loading historical data...
Loading historical data...
Loading historical data...
Loading historical data...
Loading historical data...
Loading historical data...

OBJECT G Visibility forecast

Observer location: undefined°, undefined°

Span
Click to sort rows by Start time (UTC) header in descending order
Start Az.
Max El. time (UTC)
Max El. Az.
Max El.
End time (UTC)
End Az.
6 mins2025-05-09 06:35:08.601Z283.402° WNW2025-05-09 06:38:08.601Z222.337° SW36.477°2025-05-09 06:41:08.601Z140.906° SSE
4 mins2025-05-09 23:41:08.601Z175.749° S2025-05-09 23:43:08.601Z130.106° SE21.386°2025-05-09 23:45:08.601Z94.675° ESE
6 mins2025-05-10 01:19:08.601Z253.089° W2025-05-10 01:22:08.601Z23.814° NE43.606°2025-05-10 01:25:08.601Z64.268° ENE
6 mins2025-05-10 02:59:08.601Z294.316° NW2025-05-10 03:02:08.601Z14.206° NNE31.021°2025-05-10 03:05:08.601Z65.489° ENE
6 mins2025-05-10 04:39:08.601Z303.651° NW2025-05-10 04:41:08.601Z345.129° N36.934°2025-05-10 04:45:08.601Z92.389° ESE
5 mins2025-05-10 06:19:08.601Z270.574° WNW2025-05-10 06:21:08.601Z210.806° SW34.015°2025-05-10 06:24:08.601Z144.184° SSE
|